Location: *
(45.1961°N, 1.9694°E)
Time: 08:11:59
(UTC+00:00)

Meteor 2-16 Rocket - Pass Details

Date: 25 August 2019
Orbit: 941 x 957 km, 82.6° (Epoch: 19 September)

Event Time Altitude Azimuth Distance (km) Brightness Sun altitude
Rises 20:29:27 0° 352° (N) 3,637 8.2 -17.6°
Reaches altitude 10° 20:31:58 10° 353° (N) 2,685 7.4 -18.0°
Maximum altitude 20:38:07 79° 81° (E) 970 4.4 -18.9°
Enters shadow 20:41:44 26° 165° (SSE) 1,763 5.4 -19.4°
